Regional Weather Roundup
Issued by NWS

Home | Current Version | Previous Version | Graphics & Text | Print | Product List | Glossary On
Versions: 1 2 3 4 5 6 7 8 9 10 11 12 13 14 15 16 17 18 19 20 21 22 23 24 25 26 27 28 29 30 31 32 33 34 35 36 37 38 39 40 41 42 43 44 45 46 47 48 49 50
000
ASUS43 KOAX 012010
RWRNE

WEATHER ROUNDUP FOR NEBRASKA
NATIONAL WEATHER SERVICE OMAHA NE
300 PM CDT TUE SEP 01 2015

NOTES: SATELLITE DATA IS BEING USED TO AUGMENT CLOUD COVER ABOVE
       12000 FEET.
       "FAIR" INDICATES FEW OR NO CLOUDS BELOW 12,000 FEET WITH NO
       SIGNIFICANT WEATHER AND/OR OBSTRUCTIONS TO VISIBILITY.

  * THESE STATIONS DO NOT REPORT WEATHER SUCH AS RAIN...SNOW OR FOG.

NEZ001>004-019>022-054>056-012100-
NEBRASKA PANHANDLE

CITY           SKY/WX    TMP DP  RH WIND       PRES   REMARKS
SCOTTSBLUFF    SUNNY     92  40  16 W5        29.94F
ALLIANCE       SUNNY     91  40  16 VRB3      29.93F
CHADRON        SUNNY     94  41  16 NW8G20    29.87F HX  90
KIMBALL        MOSUNNY   88  38  17 CALM      30.00F
SIDNEY         SUNNY     92  35  13 SW9       29.99F
$$

NEZ057>060-069>072-079>082-012100-
SOUTHWEST NEBRASKA

CITY           SKY/WX    TMP DP  RH WIND       PRES   REMARKS
NORTH PLATTE   SUNNY     89  56  32 VRB3      29.90F
IMPERIAL       SUNNY     91  51  25 VRB5      29.95F
LEXINGTON      SUNNY     90  57  32 NW3       29.91F
MCCOOK         SUNNY     90  58  33 S8        29.92S
OGALLALA       SUNNY     90  53  28 SW5       29.93F
$$

NEZ005>010-023>029-035>040-094-012100-
NORTH CENTRAL NEBRASKA

CITY           SKY/WX    TMP DP  RH WIND       PRES   REMARKS
VALENTINE      SUNNY     93  56  28 S15       29.86F HX  91
AINSWORTH      SUNNY     87  61  41 SE15      29.90S
BROKEN BOW     MOSUNNY   88  62  41 VRB3      29.90F
O`NEILL        MOSUNNY   82  70  67 CALM      29.90S
ORD            MOSUNNY   90  62  39 VRB7      29.87F HX  90
THEDFORD       MOSUNNY   91  59  34 S8G18     29.91S HX  90
$$

NEZ041-046>049-061>064-073>077-083>087-012100-
SOUTH CENTRAL NEBRASKA

CITY           SKY/WX    TMP DP  RH WIND       PRES   REMARKS
GRAND ISLAND   MOSUNNY   89  63  41 SW14      29.91F HX  90
AURORA         MOSUNNY   89  63  42 S15G24    29.90F
HASTINGS       MOSUNNY   87  64  46 SW8       29.91F
HEBRON         MOSUNNY   93  57  29 S16G25    29.90F HX  92
HOLDREGE       SUNNY     86  60  41 SE10      29.92F
KEARNEY *      SUNNY     88  63  42 S16       29.91F
YORK           MOSUNNY   90  66  45 S20G25    29.91F HX  92
$$

NEZ011>018-030>034-042>045-012100-
NORTHEAST NEBRASKA

CITY           SKY/WX    TMP DP  RH WIND       PRES   REMARKS
NORFOLK        MOSUNNY   86  69  56 S14       29.88F HX  90
ALBION         MOSUNNY   85  66  53 S16       29.89F
BLAIR          MOSUNNY   86  70  59 S12       29.93S HX  91
COLUMBUS *     MOSUNNY   88  68  51 S10G16    29.89F HX  91
FREMONT        PTSUNNY   89  68  49 S13       29.92S HX  92
TEKAMAH        PTSUNNY   85  73  67 S9        29.91S HX  91
WAYNE          PTSUNNY   85  71  63 S13       29.90S HX  90
$$

NEZ050>053-065>068-078-088>093-012100-
SOUTHEAST NEBRASKA

CITY           SKY/WX    TMP DP  RH WIND       PRES   REMARKS
LINCOLN        MOSUNNY   90  67  46 S15       29.91F HX  93
OMAHA EPPLEY   PTSUNNY   88  69  53 S16       29.92F HX  92
BEATRICE       MOSUNNY   89  67  47 S17       29.93F HX  91
FALLS CITY     MOSUNNY   92  68  45 S15       29.95F HX  96
NEBRASKA CITY  MOSUNNY   90  64  41 S13       29.95S HX  91
PLATTSMOUTH    MOSUNNY   87  70  58 S9        29.94F HX  91
$$

NEZ044-045-051>053-067-012100-
OMAHA AREA

CITY           SKY/WX    TMP DP  RH WIND       PRES   REMARKS
OMAHA EPPLEY   PTSUNNY   88  69  53 S16       29.92F HX  92
BLAIR          MOSUNNY   86  70  59 S12       29.93S HX  91
FREMONT        PTSUNNY   89  68  49 S13       29.92S HX  92
MILLARD        MOSUNNY   88  72  58 S12       29.92F HX  95
OFFUTT AFB     MOSUNNY   89  71  56 S14       29.92F HX  94
PLATTSMOUTH    MOSUNNY   87  70  58 S9        29.94F HX  91
WAHOO          FAIR      89  70  52 S8        29.91F HX  94
$$




USA.gov is the U.S. government's official web portal to all federal, state and local government web resources and services.